Time,TemperatureF,DewpointF,PressureIn,WindDirection,WindDirectionDegrees,WindSpeedMPH,WindSpeedGustMPH,Humidity,HourlyPrecipIn,Conditions,Clouds,dailyrainin,SoftwareType,DateUTC
2013-04-11 00:07:00,44.7,44.0,29.83,NNE,33,0.0,1.0,96,0.04,,,0.75,weatherlink.com 1.10,2013-04-11 04:07:00,
2013-04-11 00:22:00,44.5,44.0,29.82,NNE,33,0.0,2.0,96,0.03,,,0.75,weatherlink.com 1.10,2013-04-11 04:22:00,
2013-04-11 00:37:00,44.2,43.0,29.83,NNE,33,0.0,2.0,96,0.03,,,0.76,weatherlink.com 1.10,2013-04-11 04:37:00,
2013-04-11 00:52:00,43.9,43.0,29.83,NNE,33,0.0,1.0,96,0.02,,,0.76,weatherlink.com 1.10,2013-04-11 04:52:00,
2013-04-11 01:07:00,43.8,43.0,29.83,NNE,33,0.0,2.0,96,0.01,,,0.00,weatherlink.com 1.10,2013-04-11 05:07:00,
2013-04-11 01:22:00,43.7,43.0,29.83,NNE,33,0.0,1.0,96,0.01,,,0.00,weatherlink.com 1.10,2013-04-11 05:22:00,
2013-04-11 01:37:00,43.7,43.0,29.83,NNE,33,0.0,2.0,96,0.01,,,0.01,weatherlink.com 1.10,2013-04-11 05:37:00,
2013-04-11 01:52:00,43.6,43.0,29.83,North,355,0.0,3.0,96,0.01,,,0.01,weatherlink.com 1.10,2013-04-11 05:52:00,
2013-04-11 02:07:00,43.3,42.0,29.82,NNW,340,0.0,2.0,96,0.01,,,0.01,weatherlink.com 1.10,2013-04-11 06:07:00,
2013-04-11 02:23:00,43.2,42.0,29.81,NNW,340,0.0,1.0,96,0.01,,,0.01,weatherlink.com 1.10,2013-04-11 06:23:00,
2013-04-11 02:38:00,43.1,42.0,29.79,NNW,340,1.0,1.0,96,0.00,,,0.01,weatherlink.com 1.10,2013-04-11 06:38:00,
2013-04-11 02:53:00,42.9,42.0,29.80,NNW,340,0.0,1.0,96,0.00,,,0.01,weatherlink.com 1.10,2013-04-11 06:53:00,
2013-04-11 03:08:00,42.8,42.0,29.79,NNW,340,0.0,1.0,96,0.00,,,0.01,weatherlink.com 1.10,2013-04-11 07:08:00,
2013-04-11 03:23:00,42.8,42.0,29.79,NNW,340,0.0,1.0,96,0.00,,,0.01,weatherlink.com 1.10,2013-04-11 07:23:00,
2013-04-11 03:38:00,42.8,42.0,29.80,NNW,340,0.0,1.0,96,0.00,,,0.01,weatherlink.com 1.10,2013-04-11 07:38:00,
2013-04-11 03:53:00,42.8,42.0,29.80,NNW,340,0.0,1.0,96,0.00,,,0.01,weatherlink.com 1.10,2013-04-11 07:53:00,
2013-04-11 04:08:00,42.7,42.0,29.80,NNW,340,0.0,1.0,96,0.00,,,0.01,weatherlink.com 1.10,2013-04-11 08:08:00,
2013-04-11 04:23:00,42.5,42.0,29.80,NNW,340,0.0,0.0,96,0.00,,,0.01,weatherlink.com 1.10,2013-04-11 08:23:00,
2013-04-11 04:38:00,42.5,42.0,29.80,North,349,0.0,3.0,96,0.00,,,0.01,weatherlink.com 1.10,2013-04-11 08:38:00,
2013-04-11 04:53:00,42.5,41.0,29.81,WNW,285,0.0,5.0,95,0.00,,,0.01,weatherlink.com 1.10,2013-04-11 08:53:00,
2013-04-11 05:08:00,42.5,41.0,29.81,NNW,333,1.0,3.0,94,0.00,,,0.01,weatherlink.com 1.10,2013-04-11 09:08:00,
2013-04-11 05:23:00,42.5,41.0,29.82,West,274,0.0,2.0,93,0.00,,,0.01,weatherlink.com 1.10,2013-04-11 09:23:00,
2013-04-11 05:53:00,42.1,40.0,29.83,NNE,26,0.0,2.0,91,0.00,,,0.01,weatherlink.com 1.10,2013-04-11 09:53:00,
2013-04-11 06:08:00,41.9,40.0,29.83,ENE,61,1.0,3.0,91,0.00,,,0.01,weatherlink.com 1.10,2013-04-11 10:08:00,
2013-04-11 06:23:00,41.6,39.0,29.84,WSW,252,0.0,4.0,91,0.00,,,0.01,weatherlink.com 1.10,2013-04-11 10:23:00,
2013-04-11 06:38:00,41.6,40.0,29.84,SSE,148,0.0,1.0,93,0.00,,,0.01,weatherlink.com 1.10,2013-04-11 10:38:00,
2013-04-11 06:53:00,41.5,39.0,29.85,SSE,148,0.0,2.0,91,0.00,,,0.01,weatherlink.com 1.10,2013-04-11 10:53:00,
2013-04-11 07:08:00,41.7,39.0,29.87,ESE,118,0.0,3.0,90,0.00,,,0.01,weatherlink.com 1.10,2013-04-11 11:08:00,
2013-04-11 07:23:00,42.0,39.0,29.87,North,350,2.0,7.0,88,0.00,,,0.01,weatherlink.com 1.10,2013-04-11 11:23:00,
2013-04-11 07:38:00,42.1,38.0,29.88,NNW,346,1.0,5.0,86,0.00,,,0.01,weatherlink.com 1.10,2013-04-11 11:38:00,
2013-04-11 07:53:00,42.3,38.0,29.89,NNW,330,1.0,8.0,85,0.00,,,0.01,weatherlink.com 1.10,2013-04-11 11:53:00,
2013-04-11 08:08:00,42.4,38.0,29.89,NW,320,1.0,5.0,84,0.00,,,0.01,weatherlink.com 1.10,2013-04-11 12:08:00,
2013-04-11 08:23:00,42.3,37.0,29.89,NNW,344,2.0,6.0,82,0.00,,,0.01,weatherlink.com 1.10,2013-04-11 12:23:00,
2013-04-11 08:38:00,42.3,36.0,29.89,North,355,5.0,6.0,78,0.00,,,0.01,weatherlink.com 1.10,2013-04-11 12:38:00,
2013-04-11 08:53:00,42.3,36.0,29.90,North,355,0.0,6.0,78,0.00,,,0.01,weatherlink.com 1.10,2013-04-11 12:53:00,
2013-04-11 09:08:00,42.0,33.0,29.91,NNE,31,3.0,8.0,71,0.00,,,0.01,weatherlink.com 1.10,2013-04-11 13:08:00,
2013-04-11 09:23:00,42.4,35.0,29.90,North,355,1.0,3.0,75,0.00,,,0.01,weatherlink.com 1.10,2013-04-11 13:23:00,
2013-04-11 09:38:00,42.5,36.0,29.91,NW,322,2.0,4.0,79,0.00,,,0.01,weatherlink.com 1.10,2013-04-11 13:38:00,
2013-04-11 09:53:00,42.5,35.0,29.91,North,360,0.0,9.0,75,0.00,,,0.01,weatherlink.com 1.10,2013-04-11 13:53:00,
2013-04-11 10:08:00,43.0,35.0,29.91,NE,40,0.0,6.0,73,0.00,,,0.01,weatherlink.com 1.10,2013-04-11 14:08:00,
2013-04-11 10:23:00,43.0,35.0,29.91,West,265,0.0,6.0,73,0.00,,,0.01,weatherlink.com 1.10,2013-04-11 14:23:00,
2013-04-11 10:38:00,42.9,34.0,29.93,NW,307,2.0,6.0,71,0.00,,,0.01,weatherlink.com 1.10,2013-04-11 14:38:00,
2013-04-11 10:53:00,43.3,30.0,29.93,NW,323,5.0,9.0,61,0.00,,,0.01,weatherlink.com 1.10,2013-04-11 14:53:00,
2013-04-11 11:08:00,43.9,28.0,29.94,NW,321,5.0,10.0,54,0.00,,,0.01,weatherlink.com 1.10,2013-04-11 15:08:00,
2013-04-11 11:23:00,44.6,29.0,29.94,North,360,1.0,10.0,55,0.00,,,0.01,weatherlink.com 1.10,2013-04-11 15:23:00,
2013-04-11 11:38:00,44.6,27.0,29.95,NE,49,6.0,8.0,51,0.00,,,0.01,weatherlink.com 1.10,2013-04-11 15:38:00,
2013-04-11 12:08:00,43.8,28.0,29.97,NNE,33,3.0,9.0,54,0.00,,,0.01,weatherlink.com 1.10,2013-04-11 16:08:00,
2013-04-11 12:23:00,43.8,27.0,29.98,NNW,346,5.0,10.0,51,0.00,,,0.01,weatherlink.com 1.10,2013-04-11 16:23:00,
2013-04-11 12:38:00,43.8,26.0,29.98,NNW,341,1.0,10.0,50,0.00,,,0.01,weatherlink.com 1.10,2013-04-11 16:38:00,
2013-04-11 12:53:00,43.6,26.0,29.98,NNE,29,5.0,9.0,50,0.00,,,0.01,weatherlink.com 1.10,2013-04-11 16:53:00,
2013-04-11 13:08:00,43.7,25.0,29.98,North,355,3.0,6.0,49,0.00,,,0.01,weatherlink.com 1.10,2013-04-11 17:08:00,
2013-04-11 13:24:00,44.0,26.0,29.98,North,355,3.0,6.0,49,0.00,,,0.01,weatherlink.com 1.10,2013-04-11 17:24:00,
2013-04-11 13:39:00,44.5,25.0,29.97,NNE,14,2.0,11.0,46,0.00,,,0.01,weatherlink.com 1.10,2013-04-11 17:39:00,
2013-04-11 13:54:00,44.6,26.0,29.97,NW,315,0.0,5.0,49,0.00,,,0.01,weatherlink.com 1.10,2013-04-11 17:54:00,
2013-04-11 14:09:00,43.9,25.0,29.97,WNW,303,2.0,10.0,47,0.00,,,0.01,weatherlink.com 1.10,2013-04-11 18:09:00,
2013-04-11 14:24:00,43.5,25.0,29.97,NNE,17,1.0,9.0,49,0.00,,,0.01,weatherlink.com 1.10,2013-04-11 18:24:00,
2013-04-11 14:39:00,43.2,24.0,29.98,NNE,17,9.0,12.0,47,0.00,,,0.01,weatherlink.com 1.10,2013-04-11 18:39:00,
2013-04-11 14:54:00,42.8,24.0,29.97,NW,317,2.0,13.0,48,0.00,,,0.01,weatherlink.com 1.10,2013-04-11 18:54:00,
2013-04-11 15:09:00,42.8,23.0,29.97,North,351,2.0,6.0,46,0.00,,,0.01,weatherlink.com 1.10,2013-04-11 19:09:00,
2013-04-11 15:24:00,42.8,24.0,29.96,NNW,345,1.0,4.0,47,0.00,,,0.01,weatherlink.com 1.10,2013-04-11 19:24:00,
2013-04-11 15:39:00,42.9,23.0,29.95,NNW,329,1.0,4.0,45,0.00,,,0.01,weatherlink.com 1.10,2013-04-11 19:39:00,
2013-04-11 15:54:00,43.1,20.0,29.95,North,5,1.0,7.0,39,0.00,,,0.01,weatherlink.com 1.10,2013-04-11 19:54:00,
2013-04-11 16:09:00,43.1,21.0,29.95,NW,315,1.0,10.0,42,0.00,,,0.01,weatherlink.com 1.10,2013-04-11 20:09:00,
2013-04-11 16:24:00,42.9,21.0,29.96,NNE,14,0.0,7.0,42,0.00,,,0.01,weatherlink.com 1.10,2013-04-11 20:24:00,
2013-04-11 16:39:00,42.7,21.0,29.97,North,355,1.0,6.0,43,0.00,,,0.01,weatherlink.com 1.10,2013-04-11 20:39:00,
2013-04-11 16:54:00,42.5,21.0,29.98,NW,322,0.0,7.0,43,0.00,,,0.01,weatherlink.com 1.10,2013-04-11 20:54:00,
2013-04-11 17:09:00,42.6,22.0,29.97,North,360,0.0,5.0,44,0.00,,,0.01,weatherlink.com 1.10,2013-04-11 21:09:00,
2013-04-11 17:39:00,42.6,22.0,29.99,NNE,14,1.0,4.0,45,0.00,,,0.01,weatherlink.com 1.10,2013-04-11 21:39:00,
2013-04-11 17:54:00,42.5,22.0,30.00,NNE,14,0.0,2.0,45,0.00,,,0.01,weatherlink.com 1.10,2013-04-11 21:54:00,
2013-04-11 18:09:00,42.5,22.0,30.00,NNW,344,0.0,4.0,45,0.00,,,0.01,weatherlink.com 1.10,2013-04-11 22:09:00,
2013-04-11 18:24:00,42.5,23.0,30.00,North,9,0.0,4.0,46,0.00,,,0.01,weatherlink.com 1.10,2013-04-11 22:24:00,
2013-04-11 18:39:00,42.4,21.0,30.00,North,9,1.0,2.0,43,0.00,,,0.01,weatherlink.com 1.10,2013-04-11 22:39:00,
2013-04-11 18:54:00,42.3,20.0,30.00,North,349,0.0,1.0,41,0.00,,,0.01,weatherlink.com 1.10,2013-04-11 22:54:00,
2013-04-11 19:09:00,42.2,19.0,30.00,North,349,0.0,2.0,39,0.00,,,0.01,weatherlink.com 1.10,2013-04-11 23:09:00,
2013-04-11 19:24:00,42.0,20.0,30.01,North,349,0.0,1.0,42,0.00,,,0.01,weatherlink.com 1.10,2013-04-11 23:24:00,
2013-04-11 19:39:00,41.8,20.0,30.01,North,349,0.0,1.0,42,0.00,,,0.01,weatherlink.com 1.10,2013-04-11 23:39:00,
2013-04-11 19:54:00,41.6,18.0,30.02,North,349,0.0,1.0,39,0.00,,,0.01,weatherlink.com 1.10,2013-04-11 23:54:00,
2013-04-11 20:09:00,41.4,19.0,30.01,North,349,0.0,1.0,41,0.00,,,0.01,weatherlink.com 1.10,2013-04-12 00:09:00,
2013-04-11 20:24:00,40.9,25.0,30.02,WNW,291,0.0,2.0,53,0.00,,,0.01,weatherlink.com 1.10,2013-04-12 00:24:00,
2013-04-11 20:39:00,40.6,24.0,30.02,WNW,291,0.0,1.0,53,0.00,,,0.01,weatherlink.com 1.10,2013-04-12 00:39:00,
2013-04-11 20:54:00,40.4,27.0,30.02,WNW,291,0.0,1.0,59,0.00,,,0.01,weatherlink.com 1.10,2013-04-12 00:54:00,
2013-04-11 21:09:00,39.7,28.0,30.03,WSW,242,0.0,1.0,63,0.00,,,0.01,weatherlink.com 1.10,2013-04-12 01:09:00,
2013-04-11 21:24:00,39.2,28.0,30.03,WSW,242,0.0,2.0,65,0.00,,,0.01,weatherlink.com 1.10,2013-04-12 01:24:00,
2013-04-11 21:39:00,39.2,29.0,30.05,WSW,242,0.0,1.0,66,0.00,,,0.01,weatherlink.com 1.10,2013-04-12 01:39:00,
2013-04-11 21:54:00,39.1,29.0,30.05,WSW,242,0.0,0.0,66,0.00,,,0.01,weatherlink.com 1.10,2013-04-12 01:54:00,